[[{"header":{"parameterUnit":"m.s-1","parameterCategory":1,"la1":30.2991,"la2":30.254,"lo1":-89.0895,"lo2":-89.0444,"dy":0.0017,"dx":0.0017,"nx":28,"ny":28,"refTime":"2025-04-15T09:00:00:Z","depth":0,"parameterNumber":2,"parameterNumberName":"U-component_of_WINDS"},"data":[0,0,0,0,0,0,0,0,0,0,0,0,0,0,0,0,0,0,0,0,0,0,0,0,0,0,0,0,0,0,0,0,0,0,0,0,0,0,0,0,0,0,0,0,0,0,0,0,0,0,0,0,0,0,0,0,0,0,1.3178,1.3179,0,1.3251,1.3252,1.3253,1.3263,1.3262,1.3261,1.3261,1.3332,1.3335,1.3337,0,0,0,0,0,0,0,0,0,0,0,0,0,1.3043,1.3046,1.3178,1.3179,1.318,1.3251,1.3252,1.3253,1.3263,1.3262,1.3261,1.326,1.3331,1.3334,1.3337,0,0,0,0,0,0,0,0,0,0,0,0,0,1.3108,1.3047,1.3178,1.3194,1.3196,1.3251,1.3252,1.3253,1.3263,1.3262,1.3261,1.326,1.333,1.3334,1.3338,1.3382,0,0,1.3349,1.3351,0,0,0,0,0,0,0,0,1.3104,1.3112,1.319,1.3193,1.3195,1.3247,1.3231,1.3296,1.3263,1.3237,1.326,1.3259,1.3304,1.331,1.3326,1.3385,1.3388,1.335,1.3352,1.3354,1.3355,0,0,0,0,0,0,0,1.3099,1.3109,1.3207,1.3192,1.3194,1.3195,1.3203,1.3243,1.3276,1.3239,1.324,1.3249,1.3305,1.3322,1.3328,1.3389,1.335,1.3353,1.3355,1.3357,1.3485,1.3486,0,0,0,0,0,0,1.3093,1.3106,1.3205,1.3209,1.3146,1.3199,1.3208,1.3231,1.3275,1.3281,1.325,1.3249,1.3316,1.3323,1.333,1.3383,1.3354,1.3357,1.336,1.3484,1.3486,1.3487,0,0,0,0,0,0,1.309,1.3101,1.3202,1.3158,1.3171,1.3202,1.3228,1.3233,1.325,1.3283,1.3288,1.3261,1.3316,1.3325,1.3369,1.3386,1.3359,1.3363,1.3483,1.3485,1.3486,1.3489,0,0,0,0,0,0,1.3086,1.31,1.3119,1.3158,1.3173,1.324,1.323,1.3235,1.3257,1.3257,1.3295,1.3301,1.3316,1.3363,1.3372,1.339,1.3365,1.3481,1.3484,1.3486,1.3488,1.3491,1.3493,0,0,0,0,0,1.3081,1.3116,1.3119,1.3131,1.3197,1.3241,1.3249,1.3267,1.3258,1.3276,1.3297,1.33,1.3382,1.3367,1.3378,1.3397,1.348,1.3483,1.3485,1.3486,1.349,1.3493,0,0,0,0,0,0,1.3078,1.3122,1.3126,1.3176,1.3204,1.3243,1.3266,1.3271,1.3302,1.33,1.332,1.3328,1.337,1.3389,1.3371,1.3441,1.343,1.3435,1.3427,1.3431,1.3434,1.3428,1.3369,0,0,0,0,0,1.3083,1.3116,1.3153,1.3193,1.3208,1.3234,1.3254,1.3265,1.3295,1.3307,1.3332,1.336,1.3392,1.3413,1.3445,1.3491,1.3498,1.3509,1.3512,1.3514,1.3518,1.3541,1.3546,1.3495,1.3495,1.3495,0,0,1.3093,1.3122,1.3142,1.3193,1.3217,1.3249,1.3244,1.328,1.3304,1.3313,1.3355,1.3373,1.3406,1.345,1.3471,1.3467,1.3533,1.3517,1.3519,1.3521,1.3544,1.3549,1.3553,1.3497,1.3496,1.3496,0,0,1.3129,1.3155,1.319,1.3214,1.325,1.3267,1.3276,1.3313,1.3326,1.3369,1.3375,1.3403,1.3459,1.3482,1.35,1.3543,1.3545,1.3552,1.3567,1.3589,1.3593,1.3597,1.361,1.3614,1.3556,1.3556,1.3556,0,1.3138,1.3188,1.3208,1.3242,1.3263,1.3274,1.3308,1.333,1.3374,1.3388,1.3383,1.3451,1.3474,1.3523,1.3533,1.3549,1.3557,1.3548,1.3591,1.3595,1.3599,1.3611,1.3616,1.3556,1.3556,1.3556,1.3556,0,1.3196,1.3231,1.3254,1.3297,1.3321,1.3356,1.3378,1.34,1.3408,1.3425,1.3467,1.3495,1.3532,1.3544,1.3553,1.3593,1.3589,1.3588,1.3577,1.3604,1.3616,1.3621,1.3557,1.3557,1.3557,1.3557,0,0,1.3231,1.3283,1.3292,1.331,1.335,1.3376,1.341,1.3447,1.3464,1.3494,1.3521,1.3567,1.3565,1.3586,1.3598,1.3617,1.3646,1.3613,1.3614,1.3616,1.369,1.369,1.3695,1.3649,1.365,1.3651,1.3687,0,1.327,1.3332,1.3349,1.3401,1.3432,1.3441,1.347,1.3497,1.3513,1.3541,1.3559,1.359,1.3587,1.3599,1.3619,1.3639,1.3661,1.3636,1.3673,1.3674,1.3663,1.3702,1.3703,1.3735,1.3692,1.3692,1.3693,0,1.3324,1.3355,1.3409,1.3443,1.3457,1.3483,1.3516,1.3543,1.3573,1.3583,1.3606,1.3615,1.3649,1.3637,1.3683,1.3666,1.3682,1.3693,1.3695,1.3697,1.3684,1.3704,1.3746,1.375,1.3701,1.37,1.37,0,1.3341,1.3397,1.3436,1.3452,1.3493,1.3511,1.3528,1.3557,1.3577,1.3606,1.3619,1.3651,1.3668,1.3692,1.3709,1.3699,1.3752,1.3743,1.376,1.3759,1.377,1.3768,1.3813,1.3783,1.3783,1.3782,1.3782,0,1.3382,1.3414,1.3444,1.3468,1.3504,1.3523,1.3557,1.3575,1.36,1.3627,1.3637,1.3661,1.3682,1.3709,1.3722,1.3757,1.3765,1.3773,1.3776,1.3771,1.377,1.3781,1.3778,1.3784,1.3783,1.3783,1.3783,0,1.3407,1.3429,1.3472,1.3507,1.3517,1.3541,1.3571,1.3593,1.361,1.3643,1.3652,1.3677,1.3709,1.3728,1.3769,1.3777,1.3814,1.3817,1.3805,1.3806,1.3821,1.3819,1.3873,1.388,1.3846,1.3847,1.3847,0,1.3431,1.3456,1.3494,1.3512,1.353,1.3561,1.3581,1.36,1.362,1.3655,1.3673,1.3705,1.3732,1.3782,1.3803,1.3833,1.3836,1.3853,1.384,1.3834,1.3834,1.3831,1.3833,1.3854,1.3854,1.3855,1.3855,0,1.347,1.3479,1.3508,1.3541,1.3565,1.3591,1.3617,1.3632,1.3655,1.3677,1.371,1.373,1.3771,1.3802,1.3834,1.3851,1.3856,1.3859,1.3864,1.3859,1.385,1.3853,1.3808,1.3857,1.3857,1.3857,1.3857,1.3856,1.3494,1.3515,1.3545,1.3577,1.3599,1.3622,1.3645,1.3664,1.3692,1.3727,1.3736,1.377,1.3797,1.384,1.3858,1.3883,1.388,1.3889,1.389,1.3892,1.3891,1.3847,1.3889,1.3889,1.3889,1.3889,1.3889,0,1.3531,1.355,1.3579,1.3616,1.364,1.3644,1.3673,1.3692,1.3722,1.3747,1.3773,1.381,1.384,1.3863,1.3894,1.391,1.3913,1.3917,1.3915,1.3918,1.3893,1.3884,1.3914,1.3914,1.3914,1.3914,1.3914,1.3914,1.3553,1.359,1.3602,1.3649,1.3668,1.3701,1.3717,1.3738,1.3758,1.3799,1.3824,1.3839,1.3863,1.3896,1.3923,1.3929,1.3938,1.3942,1.3948,1.3923,1.392,1.3918,1.391,1.3944,1.3944,1.3972,1.3972,1.3972]},{"header":{"parameterUnit":"m.s-1","parameterCategory":1,"la1":30.2991,"la2":30.254,"lo1":-89.0895,"lo2":-89.0444,"dy":0.0017,"dx":0.0017,"nx":28,"ny":28,"refTime":"2025-04-15T09:00:00:Z","depth":0,"parameterNumber":3,"parameterNumberName":"V-component_of_WINDS"},"data":[0,0,0,0,0,0,0,0,0,0,0,0,0,0,0,0,0,0,0,0,0,0,0,0,0,0,0,0,0,0,0,0,0,0,0,0,0,0,0,0,0,0,0,0,0,0,0,0,0,0,0,0,0,0,0,0,0,0,2.9274,2.9273,0,2.924,2.9239,2.9239,2.9163,2.9162,2.916,2.9158,2.9123,2.9123,2.9124,0,0,0,0,0,0,0,0,0,0,0,0,0,2.9271,2.9271,2.9274,2.9273,2.9273,2.924,2.9239,2.9239,2.9163,2.9161,2.916,2.9158,2.9123,2.9123,2.9124,0,0,0,0,0,0,0,0,0,0,0,0,0,2.9258,2.9271,2.9274,2.9231,2.9227,2.924,2.9239,2.9239,2.9164,2.9161,2.9159,2.9157,2.9122,2.9123,2.9124,2.9175,0,0,2.9126,2.9126,0,0,0,0,0,0,0,0,2.9259,2.9258,2.9238,2.9234,2.923,2.9203,2.9225,2.9217,2.9164,2.9188,2.9158,2.9156,2.9151,2.915,2.9148,2.9173,2.9172,2.9126,2.9127,2.9127,2.9127,0,0,0,0,0,0,0,2.926,2.9259,2.926,2.9238,2.9233,2.9213,2.9209,2.9223,2.9183,2.9186,2.918,2.9177,2.9149,2.9148,2.9147,2.9171,2.9126,2.9127,2.9127,2.9128,2.9233,2.9235,0,0,0,0,0,0,2.9267,2.926,2.9261,2.9259,2.9239,2.9215,2.921,2.9214,2.9183,2.9176,2.9179,2.9174,2.9148,2.9146,2.9145,2.92,2.9127,2.9128,2.9128,2.923,2.9233,2.9236,0,0,0,0,0,0,2.9267,2.9268,2.9263,2.9258,2.9256,2.9217,2.9223,2.9215,2.9214,2.9178,2.917,2.9186,2.9146,2.9144,2.9167,2.9198,2.9128,2.9129,2.9228,2.9231,2.9234,2.9313,0,0,0,0,0,0,2.9267,2.9268,2.9288,2.9259,2.9257,2.9287,2.9225,2.9216,2.9215,2.9208,2.9182,2.9175,2.9144,2.9167,2.9168,2.9198,2.9129,2.9225,2.9229,2.9233,2.9307,2.9319,2.9328,0,0,0,0,0,2.9268,2.9312,2.929,2.929,2.9281,2.9289,2.9287,2.925,2.9218,2.9237,2.9213,2.9176,2.9195,2.917,2.9171,2.9201,2.9222,2.9228,2.9233,2.9303,2.9316,2.9328,0,0,0,0,0,0,2.9346,2.9308,2.9282,2.9319,2.9308,2.9276,2.9299,2.9266,2.9263,2.9257,2.921,2.9205,2.9234,2.922,2.9193,2.9247,2.9202,2.9208,2.9255,2.9268,2.9278,2.928,2.913,0,0,0,0,0,2.9368,2.9378,2.9344,2.9379,2.9375,2.9338,2.934,2.9312,2.9298,2.9293,2.9271,2.9259,2.9261,2.9264,2.9265,2.9305,2.9297,2.9326,2.9337,2.9346,2.9351,2.9368,2.9379,2.9253,2.9253,2.9253,0,0,2.9413,2.9393,2.9402,2.9395,2.9382,2.9392,2.9334,2.9348,2.9355,2.9295,2.9315,2.9298,2.9281,2.9312,2.9325,2.9302,2.9384,2.9352,2.936,2.936,2.9374,2.9386,2.9397,2.9257,2.9256,2.9255,0,0,2.9499,2.9486,2.9513,2.9501,2.9483,2.9458,2.9465,2.9437,2.9424,2.9443,2.9397,2.9404,2.9411,2.9399,2.9394,2.9474,2.9438,2.9475,2.9529,2.9546,2.9556,2.9565,2.959,2.96,2.9481,2.9481,2.9481,0,2.9556,2.957,2.9531,2.9546,2.9543,2.9489,2.9515,2.9506,2.9489,2.9488,2.9462,2.9467,2.9452,2.9478,2.9497,2.9496,2.95,2.9477,2.9558,2.9566,2.9574,2.9598,2.9608,2.9485,2.9485,2.9484,2.9484,0,2.9641,2.9651,2.9675,2.9659,2.9659,2.968,2.9642,2.9646,2.9618,2.9595,2.9614,2.9593,2.9587,2.9592,2.9565,2.9613,2.9599,2.9567,2.952,2.9591,2.9612,2.9621,2.9491,2.949,2.9489,2.9487,0,0,2.9776,2.9736,2.9745,2.9736,2.9712,2.9718,2.9736,2.973,2.9733,2.9723,2.9735,2.9741,2.9709,2.9704,2.9675,2.9691,2.9751,2.9656,2.9654,2.9672,2.9799,2.9822,2.9834,2.9728,2.9729,2.9731,2.98,0,2.9854,2.9882,2.9845,2.9881,2.9888,2.9836,2.9851,2.9836,2.9815,2.9817,2.9793,2.9797,2.9757,2.9753,2.9766,2.9741,2.9775,2.9736,2.9736,2.9737,2.974,2.9845,2.987,2.9936,2.9808,2.981,2.9811,0,2.9949,2.9943,2.9979,2.9949,2.9951,2.9965,2.9955,2.9959,2.994,2.9923,2.9916,2.9882,2.9895,2.9851,2.9867,2.9841,2.9839,2.9826,2.9828,2.9825,2.9777,2.9843,2.9957,2.9966,2.9824,2.9823,2.9822,0,3.0041,3.0041,3.0061,3.0056,3.0023,3.0033,3.002,2.9999,2.9997,2.9988,2.9986,2.9979,2.9975,2.997,2.9933,2.9905,2.9953,2.9907,2.9937,2.9938,2.9948,2.9947,3.0061,2.9951,2.9951,2.9951,2.995,0,3.0131,3.0154,3.0102,3.0114,3.0138,3.0095,3.012,3.0101,3.0083,3.0089,3.0045,3.0052,3.0004,3.0005,2.9977,2.9993,2.9992,2.9977,2.9969,2.998,2.9981,2.9976,2.997,2.9953,2.9953,2.9952,2.9952,0,3.0236,3.0203,3.0221,3.0188,3.018,3.0198,3.0169,3.0178,3.0153,3.0162,3.0162,3.0123,3.0122,3.0085,3.0077,3.0058,3.0084,3.0069,3.009,3.0084,3.0116,3.0112,3.0228,3.024,3.0125,3.0126,3.0127,0,3.0295,3.0311,3.0279,3.028,3.0269,3.0272,3.0269,3.0227,3.0226,3.0205,3.0216,3.0212,3.0205,3.0206,3.0176,3.0168,3.0151,3.0192,3.0149,3.0159,3.0148,3.0147,3.0147,3.02,3.0202,3.0203,3.0204,0,3.0402,3.0384,3.0382,3.0373,3.0371,3.0362,3.035,3.0354,3.0308,3.0308,3.0306,3.0301,3.0292,3.0287,3.0273,3.0258,3.0223,3.0218,3.0224,3.0234,3.0245,3.0237,3.0112,3.0215,3.0214,3.0213,3.0212,3.0212,3.0484,3.0495,3.0473,3.0472,3.0458,3.0448,3.0454,3.0429,3.0427,3.0416,3.0392,3.0393,3.0372,3.035,3.0337,3.0337,3.0316,3.0325,3.0327,3.033,3.0335,3.0247,3.0335,3.0334,3.0334,3.0334,3.0333,0,3.0586,3.0569,3.0568,3.0552,3.0551,3.0518,3.0503,3.0503,3.0505,3.0488,3.0483,3.0479,3.0473,3.0443,3.0433,3.0438,3.0421,3.0437,3.0435,3.0431,3.0356,3.035,3.045,3.045,3.045,3.045,3.045,3.045,3.0639,3.0655,3.0634,3.0642,3.0624,3.0626,3.0619,3.0608,3.0594,3.0593,3.0588,3.0568,3.0544,3.0532,3.0525,3.0515,3.0513,3.0533,3.0519,3.0448,3.0437,3.0426,3.042,3.0534,3.0534,3.0594,3.0594,3.0595]}]]